Location: LDNL
(36.4545°S, 141.6685°E)
Time: 04:02:57
(UTC+11:00)

A-11 Canister half - Pass Details

Date: 15 August 2022
Orbit: 1524 x 1684 km, 47.3° (Epoch: 05 October)

Event Time Altitude Azimuth Distance (km) Brightness Sun altitude
Rises 00:46:12 0° 240° (WSW) 4,716 - -67.7°
Reaches altitude 10° 00:49:27 10° 247° (WSW) 3,744 - -67.6°
Maximum altitude 00:58:03 41° 312° (NW) 2,173 - -67.3°
Drops below altitude 10° 01:06:52 10° 18° (NNE) 3,829 - -66.9°
Sets 01:10:15 0° 25° (NNE) 4,832 - -66.6°
